When you browse on this site, cookies collect data to enhance your experience and personalize the content and advertising you see.
Visit our Privacy Policy to learn more. By continuing to use the site, you agree to this use of cookies and data.
  • In Portugal
  • List of Countries
  • For 7 days
  • Water Temperature
  • Satellite Maps
  • Weather Map
  • Weather Widgets
  • user-avatar
    Login

    Hourly Weather Michalkowa

    Today, 15 December, Saturday

    Time Temperature Precipitation Wind Pressure Humidity
    00:00 -5°C° 0 mm 2 mps 727 mmHg 88%
    01:00 -5°C° 0 mm 2 mps 728 mmHg 89%
    02:00 -5°C° 0 mm 2 mps 728 mmHg 89%
    03:00 -5°C° 0 mm 2 mps 728 mmHg 89%
    04:00 -6°C° 0 mm 3 mps 727 mmHg 90%
    05:00 -5°C° 0 mm 3 mps 727 mmHg 90%
    06:00 -5°C° 0 mm 3 mps 727 mmHg 90%
    07:00 -4°C° 0 mm 2 mps 728 mmHg 91%
    08:00 -5°C° 0 mm 3 mps 728 mmHg 89%
    09:00 -4°C° 0 mm 3 mps 728 mmHg 86%
    10:00 -4°C° 0 mm 3 mps 728 mmHg 84%
    11:00 -4°C° 0 mm 3 mps 728 mmHg 80%
    12:00 -4°C° 0 mm 4 mps 728 mmHg 76%
    13:00 -3°C° 0 mm 4 mps 727 mmHg 73%
    14:00 -4°C° 0 mm 4 mps 727 mmHg 76%
    15:00 -4°C° 0 mm 3 mps 727 mmHg 79%
    16:00 -5°C° 0 mm 3 mps 727 mmHg 82%
    17:00 -5°C° 0 mm 3 mps 727 mmHg 83%
    18:00 -5°C° 0 mm 3 mps 726 mmHg 85%
    19:00 -6°C° 0 mm 3 mps 726 mmHg 86%
    20:00 -6°C° 0 mm 3 mps 726 mmHg 87%
    21:00 -6°C° 0 mm 3 mps 726 mmHg 88%
    22:00 -5°C° 0 mm 2 mps 725 mmHg 89%
    23:00 -5°C° 0 mm 2 mps 725 mmHg 89%

    Tomorrow, 16 December, Sunday

    Time Temperature Precipitation Wind Pressure Humidity
    00:00 -5°C° 0 mm 2 mps 725 mmHg 89%
    01:00 -5°C° 0 mm 2 mps 724 mmHg 89%
    02:00 -5°C° 0 mm 2 mps 724 mmHg 90%
    03:00 -6°C° 0 mm 2 mps 724 mmHg 90%
    04:00 -4°C° 0 mm 1 mps 723 mmHg 90%
    05:00 -4°C° 0 mm 1 mps 723 mmHg 90%
    06:00 -4°C° 0 mm 1 mps 723 mmHg 90%
    07:00 -4°C° 0 mm 1 mps 722 mmHg 91%
    08:00 -4°C° 0 mm 1 mps 722 mmHg 88%
    09:00 -3°C° 0 mm 1 mps 722 mmHg 85%
    10:00 -3°C° 0 mm 1 mps 722 mmHg 82%
    11:00 -2°C° 0 mm 1 mps 722 mmHg 79%
    12:00 -4°C° 0 mm 2 mps 722 mmHg 75%
    13:00 -3°C° 0 mm 2 mps 722 mmHg 71%
    14:00 -4°C° 0 mm 2 mps 721 mmHg 75%
    15:00 -4°C° 0 mm 2 mps 721 mmHg 78%
    16:00 -5°C° 0 mm 2 mps 721 mmHg 82%
    17:00 -5°C° 0 mm 2 mps 721 mmHg 82%
    18:00 -5°C° 0 mm 2 mps 721 mmHg 82%
    19:00 -6°C° 0 mm 3 mps 721 mmHg 81%
    20:00 -6°C° 0 mm 3 mps 721 mmHg 81%
    21:00 -6°C° 0 mm 3 mps 721 mmHg 80%
    22:00 -6°C° 0 mm 3 mps 721 mmHg 79%
    23:00 -5°C° 0 mm 2 mps 721 mmHg 80%

    Day after tomorrow, 17 December, Monday

    Time Temperature Precipitation Wind Pressure Humidity
    00:00 -5°C° 0 mm 2 mps 722 mmHg 81%
    01:00 -5°C° 0 mm 2 mps 722 mmHg 82%
    02:00 -5°C° 0 mm 2 mps 722 mmHg 83%
    03:00 -5°C° 0 mm 2 mps 722 mmHg 84%
    04:00 -4°C° 0 mm 2 mps 722 mmHg 85%
    05:00 -4°C° 0 mm 2 mps 722 mmHg 85%
    06:00 -4°C° 0 mm 2 mps 723 mmHg 86%
    07:00 -4°C° 0 mm 2 mps 723 mmHg 86%
    08:00 -3°C° 0 mm 2 mps 723 mmHg 85%
    09:00 -3°C° 0 mm 2 mps 724 mmHg 83%
    10:00 -2°C° 0 mm 2 mps 724 mmHg 81%
    11:00 -1°C° 0 mm 2 mps 725 mmHg 81%
    12:00 -1°C° 0 mm 2 mps 725 mmHg 80%
    13:00 +2°C° 0 mm 1 mps 725 mmHg 79%
    14:00 +1°C° 0 mm 1 mps 725 mmHg 82%
    15:00 0°C° 0 mm 1 mps 726 mmHg 85%
    16:00 -1°C° 0 mm 1 mps 726 mmHg 88%
    17:00 -1°C° 0 mm 1 mps 726 mmHg 88%
    18:00 -1°C° 0 mm 1 mps 727 mmHg 88%
    19:00 -1°C° 0 mm 1 mps 727 mmHg 89%
    20:00 -1°C° 0 mm 1 mps 728 mmHg 89%
    21:00 -1°C° 0 mm 1 mps 728 mmHg 89%
    22:00 -1°C° 0 mm 1 mps 728 mmHg 89%
    23:00 -1°C° 0 mm 1 mps 728 mmHg 89%

    18 December, Tuesday

    Time Temperature Precipitation Wind Pressure Humidity
    00:00 -3°C° 0 mm 2 mps 728 mmHg 89%
    01:00 -3°C° 0 mm 2 mps 729 mmHg 89%
    02:00 -1°C° 0.1 mm 1 mps 729 mmHg 89%
    03:00 -1°C° 0.1 mm 1 mps 729 mmHg 89%
    04:00 0°C° 0.1 mm 1 mps 729 mmHg 89%
    05:00 0°C° 0.2 mm 1 mps 729 mmHg 90%
    06:00 0°C° 0.2 mm 1 mps 729 mmHg 90%
    07:00 0°C° 0.2 mm 1 mps 729 mmHg 91%
    08:00 0°C° 0 mm 1 mps 730 mmHg 90%
    09:00 0°C° 0 mm 0 mps 730 mmHg 89%
    10:00 0°C° 0 mm 0 mps 730 mmHg 88%
    11:00 0°C° 0 mm 0 mps 730 mmHg 88%
    12:00 +1°C° 0 mm 0 mps 730 mmHg 87%
    13:00 +1°C° 0 mm 0 mps 730 mmHg 87%
    14:00 0°C° 0 mm 0 mps 730 mmHg 88%
    15:00 -1°C° 0 mm 0 mps 730 mmHg 90%
    16:00 0°C° 0 mm 1 mps 730 mmHg 92%
    17:00 -1°C° 0 mm 1 mps 730 mmHg 92%
    18:00 -1°C° 0 mm 1 mps 730 mmHg 92%
    19:00 -1°C° 0 mm 1 mps 730 mmHg 92%
    20:00 -1°C° 0 mm 1 mps 729 mmHg 92%
    21:00 -1°C° 0 mm 1 mps 729 mmHg 91%
    22:00 -4°C° 0 mm 2 mps 729 mmHg 91%
    23:00 -4°C° 0 mm 2 mps 729 mmHg 91%

    19 December, Wednesday

    Time Temperature Precipitation Wind Pressure Humidity
    00:00 -4°C° 0 mm 2 mps 729 mmHg 90%
    01:00 -4°C° 0 mm 2 mps 729 mmHg 90%
    02:00 -4°C° 0 mm 2 mps 728 mmHg 89%
    03:00 -4°C° 0 mm 2 mps 728 mmHg 89%
    04:00 -4°C° 0 mm 2 mps 728 mmHg 88%
    05:00 -4°C° 0 mm 2 mps 728 mmHg 87%
    06:00 -4°C° 0 mm 2 mps 728 mmHg 86%
    07:00 -4°C° 0 mm 2 mps 728 mmHg 86%
    08:00 -4°C° 0 mm 3 mps 728 mmHg 83%
    09:00 -4°C° 0 mm 3 mps 728 mmHg 80%
    10:00 -2°C° 0 mm 3 mps 728 mmHg 77%
    11:00 -1°C° 0 mm 3 mps 727 mmHg 76%
    12:00 0°C° 0 mm 3 mps 727 mmHg 75%
    13:00 0°C° 0 mm 3 mps 727 mmHg 74%
    14:00 -1°C° 0 mm 3 mps 727 mmHg 77%
    15:00 -2°C° 0 mm 3 mps 726 mmHg 80%
    16:00 -2°C° 0 mm 3 mps 726 mmHg 84%
    17:00 -4°C° 0 mm 3 mps 726 mmHg 83%
    18:00 -4°C° 0 mm 3 mps 726 mmHg 83%
    19:00 -4°C° 0 mm 3 mps 726 mmHg 82%
    20:00 -4°C° 0 mm 3 mps 726 mmHg 82%
    21:00 -4°C° 0 mm 4 mps 726 mmHg 81%
    22:00 -4°C° 0 mm 4 mps 725 mmHg 81%
    23:00 -4°C° 0 mm 4 mps 725 mmHg 80%

    20 December, Thursday

    Time Temperature Precipitation Wind Pressure Humidity
    00:00 -4°C° 0 mm 4 mps 725 mmHg 79%
    01:00 -4°C° 0 mm 4 mps 725 mmHg 78%
    02:00 -4°C° 0 mm 4 mps 725 mmHg 78%
    03:00 -4°C° 0 mm 4 mps 725 mmHg 77%
    04:00 -4°C° 0 mm 3 mps 724 mmHg 77%
    05:00 -4°C° 0 mm 4 mps 724 mmHg 77%
    06:00 -4°C° 0 mm 4 mps 724 mmHg 76%
    07:00 -4°C° 0 mm 4 mps 724 mmHg 76%
    08:00 -4°C° 0 mm 4 mps 725 mmHg 76%
    09:00 -4°C° 0 mm 4 mps 725 mmHg 76%
    10:00 -4°C° 0 mm 4 mps 725 mmHg 76%
    11:00 -4°C° 0 mm 4 mps 725 mmHg 76%
    12:00 -3°C° 0 mm 4 mps 725 mmHg 75%
    13:00 -3°C° 0 mm 4 mps 725 mmHg 74%
    14:00 -3°C° 0 mm 4 mps 725 mmHg 76%
    15:00 -4°C° 0 mm 3 mps 725 mmHg 78%
    16:00 -4°C° 0 mm 3 mps 725 mmHg 80%
    17:00 -4°C° 0 mm 3 mps 725 mmHg 81%
    18:00 -4°C° 0 mm 3 mps 725 mmHg 81%
    19:00 -4°C° 0 mm 3 mps 725 mmHg 82%
    20:00 -4°C° 0 mm 3 mps 726 mmHg 83%
    21:00 -4°C° 0 mm 3 mps 726 mmHg 84%
    22:00 -3°C° 0 mm 2 mps 726 mmHg 85%
    23:00 -3°C° 0 mm 2 mps 726 mmHg 86%
    Show more